This demonstration page uses our WeatherBlox Daily Observations layout. Learn more.

Hourly Observations for November 12, 2016

Temp ( °F °C ) Dew Point ( °F °C ) Humidity (%) Winds ( mph kmh ) Pressure ( in mb ) Visibility ( mi km ) Precip ( " mm )
12:15 am 00:15 Clear 43 6 28 -2 57 57 NNW 12 19 30.27 1025 10 16.09344 0 0
12:35 am 00:35 Clear 43 6 28 -2 57 57 NNW 13 20 30.27 1025 10 16.09344 0 0
12:55 am 00:55 Clear 43 6 28 -2 57 57 NNW 9 15 30.3 1026 10 16.09344 0 0
1:15 am 01:15 Clear 43 6 28 -2 57 57 NNW 9 15 30.3 1026 10 16.09344 0 0
1:35 am 01:35 Clear 41 5 28 -2 61 61 NNW 6 9 30.3 1026 10 16.09344 0 0
1:55 am 01:55 Clear 41 5 28 -2 61 61 NNW 8 13 30.33 1027 10 16.09344 0 0
2:15 am 02:15 Clear 41 5 28 -2 61 61 N 12 19 30.33 1027 10 16.09344 0 0
2:35 am 02:35 Clear 41 5 28 -2 61 61 N 8 13 30.33 1027 10 16.09344 0 0
2:55 am 02:55 Clear 41 5 28 -2 61 61 N 6 9 30.33 1027 10 16.09344 0 0
3:15 am 03:15 Clear 39 4 28 -2 65 65 N 7 11 30.36 1028 10 16.09344 0 0
3:35 am 03:35 Clear 37 3 28 -2 70 70 N 7 11 30.36 1028 10 16.09344 0 0
3:55 am 03:55 Clear 37 3 28 -2 70 70 NNW 7 11 30.36 1028 10 16.09344 0 0
4:15 am 04:15 Clear 37 3 28 -2 70 70 NNW 6 9 30.39 1029 10 16.09344 0 0
4:35 am 04:35 Clear 36 2 28 -2 75 75 NNW 6 9 30.39 1029 10 16.09344 0 0
4:55 am 04:55 Clear 36 2 28 -2 75 75 NNW 7 11 30.39 1029 10 16.09344 0 0
5:15 am 05:15 Clear 36 2 28 -2 75 75 NNW 5 7 30.39 1029 10 16.09344 0 0
5:35 am 05:35 Clear 32 0 28 -2 87 87 NW 5 7 30.39 1029 10 16.09344 0 0
5:55 am 05:55 Clear 34 1 28 -2 81 81 NW 7 11 30.39 1029 10 16.09344 0 0
6:15 am 06:15 Clear 32 0 28 -2 87 87 WNW 5 7 30.39 1029 10 16.09344 0 0
6:35 am 06:35 Clear 32 0 28 -2 87 87 NNW 6 9 30.42 1030 10 16.09344 0 0
6:55 am 06:55 Sunny 34 1 28 -2 81 81 NW 5 7 30.42 1030 10 16.09344 0 0
7:15 am 07:15 Sunny 34 1 28 -2 81 81 NW 6 9 30.42 1030 10 16.09344 0 0
7:35 am 07:35 Sunny 34 1 28 -2 81 81 NNW 5 7 30.42 1030 10 16.09344 0 0
7:55 am 07:55 Sunny 36 2 28 -2 75 75 undefined N/A 30.45 1031 10 16.09344 0 0
8:15 am 08:15 Sunny 37 3 28 -2 70 70 undefined N/A 30.45 1031 10 16.09344 0 0
8:35 am 08:35 Sunny 39 4 28 -2 65 65 undefined N/A 30.45 1031 10 16.09344 0 0
8:55 am 08:55 Sunny 41 5 28 -2 61 61 undefined N/A 30.48 1032 10 16.09344 0 0
9:15 am 09:15 Sunny 41 5 28 -2 61 61 NNW 9 15 30.48 1032 10 16.09344 0 0
9:35 am 09:35 Sunny 43 6 27 -3 53 53 undefined N/A 30.48 1032 10 16.09344 0 0
9:55 am 09:55 Sunny 43 6 28 -2 57 57 NNW 9 15 30.48 1032 10 16.09344 0 0
10:15 am 10:15 Sunny 43 6 28 -2 57 57 NW 8 13 30.48 1032 10 16.09344 0 0
10:35 am 10:35 Sunny 45 7 27 -3 49 49 Calm 30.48 1032 10 16.09344 0 0
10:55 am 10:55 Sunny 45 7 28 -2 53 53 WNW 7 11 30.45 1031 10 16.09344 0 0
11:15 am 11:15 Sunny 45 7 27 -3 49 49 WNW 7 11 30.45 1031 10 16.09344 0 0
11:35 am 11:35 Sunny 46 8 27 -3 46 46 N 5 7 30.45 1031 10 16.09344 0 0
11:55 am 11:55 Sunny 46 8 28 -2 50 50 NNW 8 13 30.45 1031 10 16.09344 0 0
12:15 pm 12:15 Sunny 46 8 27 -3 46 46 N 7 11 30.42 1030 10 16.09344 0 0
12:35 pm 12:35 Sunny 48 9 28 -2 46 46 NW 5 7 30.42 1030 10 16.09344 0 0
12:55 pm 12:55 Sunny 50 10 28 -2 43 43 NNW 7 11 30.42 1030 10 16.09344 0 0
1:15 pm 13:15 Sunny 50 10 27 -3 40 40 N 5 7 30.39 1029 10 16.09344 0 0
1:35 pm 13:35 Sunny 50 10 28 -2 43 43 NNW 7 11 30.39 1029 10 16.09344 0 0
1:55 pm 13:55 Sunny 52 11 28 -2 41 41 W 7 11 30.39 1029 10 16.09344 0 0
2:15 pm 14:15 Sunny 52 11 28 -2 41 41 NNW 5 7 30.36 1028 10 16.09344 0 0
2:35 pm 14:35 Sunny 52 11 28 -2 41 41 WNW 7 11 30.36 1028 10 16.09344 0 0
2:55 pm 14:55 Sunny 52 11 28 -2 41 41 NNW 6 9 30.36 1028 10 16.09344 0 0
3:15 pm 15:15 Sunny 52 11 27 -3 38 38 NNW 8 13 30.36 1028 10 16.09344 0 0
3:35 pm 15:35 Sunny 52 11 27 -3 38 38 NNW 7 11 30.36 1028 10 16.09344 0 0
3:55 pm 15:55 Sunny 50 10 28 -2 43 43 NNW 6 9 30.36 1028 10 16.09344 0 0
4:15 pm 16:15 Sunny 50 10 28 -2 43 43 undefined N/A 30.36 1028 10 16.09344 0 0
4:35 pm 16:35 Sunny 48 9 30 -1 50 50 NW 6 9 30.33 1027 10 16.09344 0 0
4:55 pm 16:55 Sunny 46 8 28 -2 50 50 Calm 30.36 1028 10 16.09344 0 0
5:15 pm 17:15 Clear 46 8 28 -2 50 50 W 3 6 30.33 1027 10 16.09344 0 0
5:35 pm 17:35 Clear 46 8 28 -2 50 50 Calm 30.33 1027 10 16.09344 0 0
5:55 pm 17:55 Clear 45 7 30 -1 57 57 Calm 30.33 1027 10 16.09344 0 0
6:15 pm 18:15 Clear 41 5 30 -1 66 66 Calm 30.33 1027 10 16.09344 0 0
6:35 pm 18:35 Clear 41 5 30 -1 66 66 Calm 30.33 1027 10 16.09344 0 0
6:55 pm 18:55 Clear 37 3 30 -1 75 75 undefined N/A 30.33 1027 10 16.09344 0 0
7:15 pm 19:15 Clear 36 2 32 0 87 87 undefined N/A 30.33 1027 10 16.09344 0 0
7:35 pm 19:35 Clear 37 3 30 -1 75 75 Calm 30.33 1027 10 16.09344 0 0
7:55 pm 19:55 Clear 36 2 30 -1 81 81 WSW 3 6 30.33 1027 10 16.09344 0 0
8:15 pm 20:15 Clear 36 2 30 -1 81 81 SW 3 6 30.33 1027 10 16.09344 0 0
8:35 pm 20:35 Clear 34 1 30 -1 87 87 undefined N/A 30.33 1027 10 16.09344 0 0
8:55 pm 20:55 Clear 34 1 30 -1 87 87 WSW 6 9 30.33 1027 10 16.09344 0 0
9:15 pm 21:15 Clear 36 2 28 -2 75 75 undefined N/A 30.33 1027 10 16.09344 0 0
9:35 pm 21:35 Clear 34 1 30 -1 87 87 WSW 7 11 30.33 1027 10 16.09344 0 0
9:55 pm 21:55 Clear 39 4 28 -2 65 65 undefined N/A 30.33 1027 10 16.09344 0 0
10:15 pm 22:15 Clear 37 3 28 -2 70 70 undefined N/A 30.33 1027 10 16.09344 0 0
10:35 pm 22:35 Clear 36 2 28 -2 75 75 WSW 6 9 30.33 1027 10 16.09344 0 0
10:55 pm 22:55 Clear 34 1 30 -1 87 87 undefined N/A 30.33 1027 10 16.09344 0 0
11:15 pm 23:15 Clear 34 1 30 -1 87 87 W 7 11 30.33 1027 10 16.09344 0 0
11:35 pm 23:35 Clear 34 1 30 -1 87 87 undefined N/A 30.33 1027 10 16.09344 0 0
11:55 pm 23:55 Clear 36 2 28 -2 75 75 W 5 7 30.33 1027 10 16.09344 0 0

Powered by AerisWeather